Time,TemperatureF,DewpointF,PressureIn,WindDirection,WindDirectionDegrees,WindSpeedMPH,WindSpeedGustMPH,Humidity,HourlyPrecipIn,Conditions,Clouds,dailyrainin,SoftwareType,DateUTC
2013-05-05 00:02:00,69.5,65.8,29.83,NW,306,2.0,9.0,88,0.00,,,0.00,Wunderground v.1.13,2013-05-05 04:02:00,
2013-05-05 00:04:00,69.4,65.7,29.83,WNW,302,2.0,9.0,88,0.00,,,0.00,Wunderground v.1.13,2013-05-05 04:04:00,
2013-05-05 00:06:00,69.2,65.5,29.83,NW,318,2.0,2.0,88,0.00,,,0.00,Wunderground v.1.13,2013-05-05 04:06:00,
2013-05-05 00:12:00,68.9,65.5,29.83,WNW,300,2.0,2.0,89,0.00,,,0.00,Wunderground v.1.13,2013-05-05 04:12:00,
2013-05-05 00:18:00,68.7,65.3,29.83,NW,308,1.0,1.0,89,0.00,,,0.00,Wunderground v.1.13,2013-05-05 04:18:00,
2013-05-05 00:24:00,68.6,65.2,29.83,NW,307,1.0,1.0,89,0.00,,,0.00,Wunderground v.1.13,2013-05-05 04:24:00,
2013-05-05 00:30:00,68.5,65.1,29.83,WNW,292,1.0,1.0,89,0.00,,,0.00,Wunderground v.1.13,2013-05-05 04:30:00,
2013-05-05 00:36:00,68.5,65.1,29.83,NW,307,1.0,1.0,89,0.00,,,0.00,Wunderground v.1.13,2013-05-05 04:36:00,
2013-05-05 00:42:00,67.9,64.5,29.82,NW,313,3.0,10.0,89,0.00,,,0.00,Wunderground v.1.13,2013-05-05 04:42:00,
2013-05-05 00:48:00,67.6,64.6,29.82,NW,311,3.0,3.0,90,0.00,,,0.00,Wunderground v.1.13,2013-05-05 04:48:00,
2013-05-05 00:54:00,67.4,64.4,29.83,West,273,1.0,10.0,90,0.00,,,0.00,Wunderground v.1.13,2013-05-05 04:54:00,
2013-05-05 01:00:00,67.2,64.5,29.83,NW,315,1.0,1.0,91,0.00,,,0.00,Wunderground v.1.13,2013-05-05 05:00:00,
2013-05-05 01:06:00,67.3,64.3,29.82,NW,305,0.0,0.0,90,0.00,,,0.00,Wunderground v.1.13,2013-05-05 05:06:00,
2013-05-05 01:12:00,67.3,64.3,29.83,NW,309,1.0,1.0,90,0.00,,,0.00,Wunderground v.1.13,2013-05-05 05:12:00,
2013-05-05 01:18:00,67.2,64.5,29.82,NW,321,1.0,1.0,91,0.00,,,0.00,Wunderground v.1.13,2013-05-05 05:18:00,
2013-05-05 01:24:00,67.2,64.5,29.82,NW,306,0.0,12.0,91,0.00,,,0.00,Wunderground v.1.13,2013-05-05 05:24:00,
2013-05-05 01:30:00,67.2,64.5,29.82,WNW,284,0.0,12.0,91,0.00,,,0.00,Wunderground v.1.13,2013-05-05 05:30:00,
2013-05-05 01:36:00,67.1,64.4,29.82,WNW,288,0.0,12.0,91,0.00,,,0.00,Wunderground v.1.13,2013-05-05 05:36:00,
2013-05-05 01:42:00,67.1,64.4,29.82,WNW,285,0.0,12.0,91,0.00,,,0.00,Wunderground v.1.13,2013-05-05 05:42:00,
2013-05-05 01:48:00,67.1,64.7,29.82,WNW,285,0.0,12.0,92,0.00,,,0.00,Wunderground v.1.13,2013-05-05 05:48:00,
2013-05-05 01:54:00,67.1,64.7,29.82,NW,321,0.0,12.0,92,0.00,,,0.00,Wunderground v.1.13,2013-05-05 05:54:00,
2013-05-05 02:00:00,67.0,64.6,29.82,NNW,348,0.0,12.0,92,0.00,,,0.00,Wunderground v.1.13,2013-05-05 06:00:00,
2013-05-05 02:06:00,66.5,64.1,29.82,NW,313,1.0,1.0,92,0.00,,,0.00,Wunderground v.1.13,2013-05-05 06:06:00,
2013-05-05 02:12:00,66.2,63.8,29.82,WNW,287,0.0,0.0,92,0.00,,,0.00,Wunderground v.1.13,2013-05-05 06:12:00,
2013-05-05 02:18:00,65.9,63.8,29.82,WNW,302,0.0,0.0,93,0.00,,,0.00,Wunderground v.1.13,2013-05-05 06:18:00,
2013-05-05 02:24:00,65.8,63.7,29.82,WNW,300,0.0,0.0,93,0.00,,,0.00,Wunderground v.1.13,2013-05-05 06:24:00,
2013-05-05 02:30:00,65.8,63.7,29.82,NW,309,0.0,0.0,93,0.00,,,0.01,Wunderground v.1.13,2013-05-05 06:30:00,
2013-05-05 02:36:00,65.8,64.0,29.82,WNW,300,0.0,0.0,94,0.00,,,0.01,Wunderground v.1.13,2013-05-05 06:36:00,
2013-05-05 02:42:00,65.3,63.5,29.82,NNW,331,1.0,1.0,94,0.00,,,0.01,Wunderground v.1.13,2013-05-05 06:42:00,
2013-05-05 02:48:00,65.1,63.3,29.81,NW,317,1.0,1.0,94,0.00,,,0.01,Wunderground v.1.13,2013-05-05 06:48:00,
2013-05-05 02:54:00,64.9,63.1,29.81,NW,317,1.0,1.0,94,0.00,,,0.01,Wunderground v.1.13,2013-05-05 06:54:00,
2013-05-05 03:00:00,64.9,63.1,29.81,NW,309,0.0,0.0,94,0.00,,,0.01,Wunderground v.1.13,2013-05-05 07:00:00,
2013-05-05 03:06:00,64.9,63.1,29.81,NW,309,0.0,0.0,94,0.00,,,0.01,Wunderground v.1.13,2013-05-05 07:06:00,
2013-05-05 03:12:00,64.9,63.1,29.81,NW,308,0.0,0.0,94,0.00,,,0.01,Wunderground v.1.13,2013-05-05 07:12:00,
2013-05-05 03:18:00,64.9,63.1,29.81,NW,309,0.0,9.0,94,0.00,,,0.01,Wunderground v.1.13,2013-05-05 07:18:00,
2013-05-05 03:24:00,64.8,63.0,29.81,NW,306,0.0,9.0,94,0.00,,,0.01,Wunderground v.1.13,2013-05-05 07:24:00,
2013-05-05 03:30:00,64.8,62.7,29.81,WNW,300,0.0,9.0,93,0.00,,,0.01,Wunderground v.1.13,2013-05-05 07:30:00,
2013-05-05 03:36:00,65.0,62.9,29.81,NW,317,0.0,9.0,93,0.00,,,0.01,Wunderground v.1.13,2013-05-05 07:36:00,
2013-05-05 03:42:00,64.9,62.5,29.81,NW,316,0.0,9.0,92,0.00,,,0.01,Wunderground v.1.13,2013-05-05 07:42:00,
2013-05-05 03:48:00,64.9,62.2,29.81,NW,311,0.0,9.0,91,0.00,,,0.01,Wunderground v.1.13,2013-05-05 07:48:00,
2013-05-05 03:54:00,65.0,62.0,29.81,WNW,302,0.0,9.0,90,0.00,,,0.01,Wunderground v.1.13,2013-05-05 07:54:00,
2013-05-05 04:00:00,65.0,61.7,29.81,NW,311,0.0,9.0,89,0.00,,,0.01,Wunderground v.1.13,2013-05-05 08:00:00,
2013-05-05 04:06:00,64.9,61.3,29.82,NW,306,0.0,0.0,88,0.00,,,0.01,Wunderground v.1.13,2013-05-05 08:06:00,
2013-05-05 04:12:00,64.8,60.8,29.82,WNW,303,0.0,0.0,87,0.00,,,0.01,Wunderground v.1.13,2013-05-05 08:12:00,
2013-05-05 04:18:00,64.8,60.5,29.82,WNW,288,0.0,6.0,86,0.00,,,0.01,Wunderground v.1.13,2013-05-05 08:18:00,
2013-05-05 04:24:00,64.8,59.9,29.82,NNW,329,0.0,6.0,84,0.00,,,0.01,Wunderground v.1.13,2013-05-05 08:24:00,
2013-05-05 04:30:00,64.8,59.5,29.82,WNW,300,0.0,6.0,83,0.00,,,0.01,Wunderground v.1.13,2013-05-05 08:30:00,
2013-05-05 04:36:00,64.8,59.2,29.82,WNW,284,0.0,6.0,82,0.00,,,0.01,Wunderground v.1.13,2013-05-05 08:36:00,
2013-05-05 04:42:00,64.9,59.3,29.82,WNW,292,0.0,6.0,82,0.00,,,0.01,Wunderground v.1.13,2013-05-05 08:42:00,
2013-05-05 04:48:00,64.9,58.9,29.83,West,267,0.0,6.0,81,0.00,,,0.01,Wunderground v.1.13,2013-05-05 08:48:00,
2013-05-05 04:54:00,65.0,59.0,29.83,WNW,292,0.0,6.0,81,0.00,,,0.01,Wunderground v.1.13,2013-05-05 08:54:00,
2013-05-05 05:00:00,65.0,59.0,29.83,WNW,295,0.0,6.0,81,0.00,,,0.01,Wunderground v.1.13,2013-05-05 09:00:00,
2013-05-05 05:06:00,65.1,59.1,29.83,WNW,296,0.0,0.0,81,0.00,,,0.01,Wunderground v.1.13,2013-05-05 09:06:00,
2013-05-05 05:12:00,65.2,59.2,29.83,WNW,300,0.0,0.0,81,0.00,,,0.01,Wunderground v.1.13,2013-05-05 09:12:00,
2013-05-05 05:18:00,65.2,59.2,29.83,NW,313,0.0,3.0,81,0.00,,,0.01,Wunderground v.1.13,2013-05-05 09:18:00,
2013-05-05 05:24:00,64.9,58.2,29.83,NW,319,2.0,2.0,79,0.00,,,0.01,Wunderground v.1.13,2013-05-05 09:24:00,
2013-05-05 05:30:00,64.7,57.7,29.83,NW,306,2.0,3.0,78,0.00,,,0.01,Wunderground v.1.13,2013-05-05 09:30:00,
2013-05-05 05:36:00,64.7,57.3,29.83,NNW,328,3.0,3.0,77,0.00,,,0.01,Wunderground v.1.13,2013-05-05 09:36:00,
2013-05-05 05:42:00,64.7,57.0,29.83,NNW,333,3.0,5.0,76,0.00,,,0.01,Wunderground v.1.13,2013-05-05 09:42:00,
2013-05-05 05:48:00,64.6,56.9,29.83,NW,312,1.0,1.0,76,0.00,,,0.01,Wunderground v.1.13,2013-05-05 09:48:00,
2013-05-05 05:54:00,64.6,56.9,29.84,WNW,283,2.0,2.0,76,0.00,,,0.01,Wunderground v.1.13,2013-05-05 09:54:00,
2013-05-05 06:00:00,64.5,56.8,29.84,NW,316,1.0,1.0,76,0.00,,,0.01,Wunderground v.1.13,2013-05-05 10:00:00,
2013-05-05 06:06:00,64.4,56.3,29.84,WNW,284,2.0,2.0,75,0.00,,,0.01,Wunderground v.1.13,2013-05-05 10:06:00,
2013-05-05 06:12:00,64.4,55.9,29.84,WNW,301,2.0,4.0,74,0.00,,,0.01,Wunderground v.1.13,2013-05-05 10:12:00,
2013-05-05 06:18:00,64.3,55.8,29.85,NW,317,2.0,2.0,74,0.00,,,0.01,Wunderground v.1.13,2013-05-05 10:18:00,
2013-05-05 06:24:00,64.1,55.6,29.85,NW,307,1.0,11.0,74,0.00,,,0.01,Wunderground v.1.13,2013-05-05 10:24:00,
2013-05-05 06:30:00,64.0,55.2,29.86,NW,304,1.0,1.0,73,0.00,,,0.01,Wunderground v.1.13,2013-05-05 10:30:00,
2013-05-05 06:36:00,63.9,55.1,29.86,NW,311,2.0,2.0,73,0.00,,,0.01,Wunderground v.1.13,2013-05-05 10:36:00,
2013-05-05 06:42:00,63.7,54.9,29.86,NW,321,3.0,3.0,73,0.00,,,0.01,Wunderground v.1.13,2013-05-05 10:42:00,
2013-05-05 06:48:00,63.6,55.2,29.86,NW,308,2.0,11.0,74,0.00,,,0.01,Wunderground v.1.13,2013-05-05 10:48:00,
2013-05-05 06:54:00,63.5,54.7,29.87,NNW,332,2.0,11.0,73,0.00,,,0.01,Wunderground v.1.13,2013-05-05 10:54:00,
2013-05-05 07:00:00,63.4,54.6,29.87,NW,304,4.0,11.0,73,0.00,,,0.01,Wunderground v.1.13,2013-05-05 11:00:00,
2013-05-05 07:06:00,63.4,54.2,29.87,NW,314,3.0,4.0,72,0.00,,,0.01,Wunderground v.1.13,2013-05-05 11:06:00,
2013-05-05 07:12:00,63.4,54.6,29.87,NNW,334,2.0,2.0,73,0.00,,,0.01,Wunderground v.1.13,2013-05-05 11:12:00,
2013-05-05 07:18:00,63.3,54.1,29.88,NW,310,1.0,1.0,72,0.00,,,0.01,Wunderground v.1.13,2013-05-05 11:18:00,
2013-05-05 07:24:00,63.3,54.1,29.88,NW,320,2.0,2.0,72,0.00,,,0.01,Wunderground v.1.13,2013-05-05 11:24:00,
2013-05-05 07:30:00,63.5,54.7,29.89,NW,309,1.0,1.0,73,0.00,,,0.01,Wunderground v.1.13,2013-05-05 11:30:00,
2013-05-05 07:36:00,63.5,54.3,29.89,NW,322,1.0,1.0,72,0.00,,,0.01,Wunderground v.1.13,2013-05-05 11:36:00,
2013-05-05 07:42:00,63.6,54.4,29.88,WNW,288,2.0,2.0,72,0.00,,,0.01,Wunderground v.1.13,2013-05-05 11:42:00,
2013-05-05 07:48:00,63.9,54.3,29.89,NNW,327,1.0,13.0,71,0.00,,,0.01,Wunderground v.1.13,2013-05-05 11:48:00,
2013-05-05 07:54:00,64.4,53.6,29.90,NW,310,2.0,13.0,68,0.00,,,0.01,Wunderground v.1.13,2013-05-05 11:54:00,
2013-05-05 08:00:00,64.6,54.2,29.89,NNW,340,3.0,3.0,69,0.00,,,0.01,Wunderground v.1.13,2013-05-05 12:00:00,
2013-05-05 08:06:00,64.6,54.2,29.89,NW,315,2.0,2.0,69,0.00,,,0.01,Wunderground v.1.13,2013-05-05 12:06:00,
2013-05-05 08:12:00,64.5,53.3,29.90,NNW,327,1.0,1.0,67,0.00,,,0.01,Wunderground v.1.13,2013-05-05 12:12:00,
2013-05-05 08:18:00,64.4,53.2,29.90,NW,306,1.0,13.0,67,0.00,,,0.01,Wunderground v.1.13,2013-05-05 12:18:00,
2013-05-05 08:24:00,64.6,53.0,29.90,NW,321,3.0,3.0,66,0.00,,,0.01,Wunderground v.1.13,2013-05-05 12:24:00,
2013-05-05 08:30:00,65.0,53.4,29.90,NNW,330,2.0,2.0,66,0.00,,,0.01,Wunderground v.1.13,2013-05-05 12:30:00,
2013-05-05 08:36:00,65.3,53.2,29.91,NW,323,0.0,13.0,65,0.00,,,0.01,Wunderground v.1.13,2013-05-05 12:36:00,
2013-05-05 08:42:00,65.6,53.5,29.91,NNW,340,3.0,13.0,65,0.00,,,0.01,Wunderground v.1.13,2013-05-05 12:42:00,
2013-05-05 08:48:00,65.8,53.3,29.90,NW,317,6.0,6.0,64,0.00,,,0.01,Wunderground v.1.13,2013-05-05 12:48:00,
2013-05-05 08:54:00,66.1,54.0,29.90,North,355,3.0,13.0,65,0.00,,,0.01,Wunderground v.1.13,2013-05-05 12:54:00,
2013-05-05 09:00:00,66.3,53.8,29.91,WNW,302,3.0,3.0,64,0.00,,,0.01,Wunderground v.1.13,2013-05-05 13:00:00,
2013-05-05 09:06:00,66.4,52.5,29.91,NNW,329,5.0,12.0,61,0.00,,,0.01,Wunderground v.1.13,2013-05-05 13:06:00,
2013-05-05 09:12:00,66.2,52.8,29.91,NNW,328,7.0,7.0,62,0.00,,,0.01,Wunderground v.1.13,2013-05-05 13:12:00,
2013-05-05 09:18:00,66.6,53.6,29.91,NW,321,7.0,12.0,63,0.00,,,0.01,Wunderground v.1.13,2013-05-05 13:18:00,
2013-05-05 09:24:00,66.9,53.9,29.92,NW,317,8.0,8.0,63,0.00,,,0.01,Wunderground v.1.13,2013-05-05 13:24:00,
2013-05-05 09:30:00,67.3,53.4,29.92,NNW,329,7.0,12.0,61,0.00,,,0.01,Wunderground v.1.13,2013-05-05 13:30:00,
2013-05-05 09:36:00,67.1,53.6,29.92,NNW,340,8.0,12.0,62,0.00,,,0.01,Wunderground v.1.13,2013-05-05 13:36:00,
2013-05-05 09:42:00,67.4,54.4,29.92,NW,318,8.0,8.0,63,0.00,,,0.01,Wunderground v.1.13,2013-05-05 13:42:00,
2013-05-05 09:48:00,67.7,54.6,29.92,NNE,24,7.0,12.0,63,0.00,,,0.01,Wunderground v.1.13,2013-05-05 13:48:00,
2013-05-05 09:54:00,68.1,54.1,29.93,NNW,333,7.0,12.0,61,0.00,,,0.01,Wunderground v.1.13,2013-05-05 13:54:00,
2013-05-05 10:00:00,68.1,53.2,29.93,NNW,342,10.0,10.0,59,0.00,,,0.01,Wunderground v.1.13,2013-05-05 14:00:00,
2013-05-05 10:06:00,68.1,52.8,29.93,NW,325,11.0,11.0,58,0.00,,,0.01,Wunderground v.1.13,2013-05-05 14:06:00,
2013-05-05 10:12:00,68.1,52.8,29.93,North,351,11.0,11.0,58,0.00,,,0.01,Wunderground v.1.13,2013-05-05 14:12:00,
2013-05-05 10:18:00,68.3,52.0,29.93,WNW,292,10.0,10.0,56,0.00,,,0.01,Wunderground v.1.13,2013-05-05 14:18:00,
2013-05-05 10:24:00,68.8,52.9,29.93,NNW,346,9.0,9.0,57,0.00,,,0.01,Wunderground v.1.13,2013-05-05 14:24:00,
2013-05-05 10:30:00,68.8,52.5,29.93,NNW,336,9.0,16.0,56,0.00,,,0.01,Wunderground v.1.13,2013-05-05 14:30:00,
2013-05-05 10:36:00,68.8,52.5,29.93,NW,322,11.0,11.0,56,0.00,,,0.01,Wunderground v.1.13,2013-05-05 14:36:00,
2013-05-05 10:42:00,69.0,51.2,29.94,NNW,335,11.0,16.0,53,0.00,,,0.01,Wunderground v.1.13,2013-05-05 14:42:00,
2013-05-05 10:48:00,68.8,52.5,29.94,North,349,12.0,12.0,56,0.00,,,0.01,Wunderground v.1.13,2013-05-05 14:48:00,
2013-05-05 10:54:00,69.2,52.8,29.94,NNE,25,10.0,10.0,56,0.00,,,0.01,Wunderground v.1.13,2013-05-05 14:54:00,
2013-05-05 11:00:00,69.3,52.4,29.94,North,360,10.0,10.0,55,0.00,,,0.01,Wunderground v.1.13,2013-05-05 15:00:00,
2013-05-05 11:06:00,69.7,52.8,29.95,NW,315,10.0,10.0,55,0.00,,,0.01,Wunderground v.1.13,2013-05-05 15:06:00,
2013-05-05 11:12:00,69.7,52.3,29.95,NNW,342,10.0,11.0,54,0.00,,,0.01,Wunderground v.1.13,2013-05-05 15:12:00,
2013-05-05 11:18:00,69.8,52.4,29.95,NNW,327,10.0,22.0,54,0.00,,,0.01,Wunderground v.1.13,2013-05-05 15:18:00,
2013-05-05 11:24:00,69.9,52.5,29.94,North,11,10.0,10.0,54,0.00,,,0.01,Wunderground v.1.13,2013-05-05 15:24:00,
2013-05-05 11:30:00,70.1,52.7,29.94,North,350,8.0,22.0,54,0.00,,,0.01,Wunderground v.1.13,2013-05-05 15:30:00,
2013-05-05 11:36:00,70.0,53.6,29.94,NNW,330,8.0,8.0,56,0.00,,,0.01,Wunderground v.1.13,2013-05-05 15:36:00,
2013-05-05 11:42:00,70.3,52.9,29.95,North,360,8.0,22.0,54,0.00,,,0.01,Wunderground v.1.13,2013-05-05 15:42:00,
2013-05-05 11:48:00,70.3,52.9,29.94,NNW,333,9.0,22.0,54,0.00,,,0.01,Wunderground v.1.13,2013-05-05 15:48:00,
2013-05-05 11:54:00,70.7,52.7,29.95,North,355,9.0,22.0,53,0.00,,,0.01,Wunderground v.1.13,2013-05-05 15:54:00,
2013-05-05 12:00:00,71.0,53.0,29.94,North,355,10.0,10.0,53,0.00,,,0.01,Wunderground v.1.13,2013-05-05 16:00:00,
2013-05-05 12:06:00,70.9,51.9,29.94,NW,309,10.0,13.0,51,0.00,,,0.01,Wunderground v.1.13,2013-05-05 16:06:00,
2013-05-05 12:12:00,70.9,53.9,29.94,North,349,9.0,9.0,55,0.00,,,0.01,Wunderground v.1.13,2013-05-05 16:12:00,
2013-05-05 12:18:00,71.2,53.2,29.94,NNW,337,9.0,20.0,53,0.00,,,0.01,Wunderground v.1.13,2013-05-05 16:18:00,
2013-05-05 12:24:00,71.4,51.8,29.94,NNW,348,10.0,20.0,50,0.00,,,0.01,Wunderground v.1.13,2013-05-05 16:24:00,
2013-05-05 12:30:00,71.3,53.3,29.94,NNE,32,10.0,10.0,53,0.00,,,0.01,Wunderground v.1.13,2013-05-05 16:30:00,
2013-05-05 12:36:00,71.7,53.1,29.93,North,5,8.0,20.0,52,0.00,,,0.01,Wunderground v.1.13,2013-05-05 16:36:00,
2013-05-05 12:42:00,71.7,52.6,29.93,NNW,329,8.0,8.0,51,0.00,,,0.01,Wunderground v.1.13,2013-05-05 16:42:00,
2013-05-05 12:48:00,71.9,52.8,29.93,NNW,330,8.0,8.0,51,0.00,,,0.01,Wunderground v.1.13,2013-05-05 16:48:00,
2013-05-05 12:54:00,71.6,51.4,29.93,NW,309,9.0,20.0,49,0.00,,,0.01,Wunderground v.1.13,2013-05-05 16:54:00,
2013-05-05 13:00:00,71.7,53.1,29.93,WNW,290,9.0,9.0,52,0.00,,,0.01,Wunderground v.1.13,2013-05-05 17:00:00,
2013-05-05 13:06:00,71.8,52.7,29.93,North,360,8.0,8.0,51,0.00,,,0.01,Wunderground v.1.13,2013-05-05 17:06:00,
2013-05-05 13:12:00,72.0,51.8,29.93,NW,322,8.0,8.0,49,0.00,,,0.01,Wunderground v.1.13,2013-05-05 17:12:00,
2013-05-05 13:18:00,72.1,53.0,29.93,NW,321,9.0,20.0,51,0.00,,,0.01,Wunderground v.1.13,2013-05-05 17:18:00,
2013-05-05 13:24:00,72.2,52.5,29.93,NW,309,9.0,20.0,50,0.00,,,0.01,Wunderground v.1.13,2013-05-05 17:24:00,
2013-05-05 13:30:00,71.9,52.8,29.93,NW,321,8.0,8.0,51,0.00,,,0.01,Wunderground v.1.13,2013-05-05 17:30:00,
2013-05-05 13:36:00,72.3,52.1,29.93,NNW,329,7.0,20.0,49,0.00,,,0.01,Wunderground v.1.13,2013-05-05 17:36:00,
2013-05-05 13:42:00,72.4,52.7,29.93,NW,313,8.0,20.0,50,0.00,,,0.01,Wunderground v.1.13,2013-05-05 17:42:00,
2013-05-05 13:48:00,72.3,53.2,29.93,North,360,8.0,20.0,51,0.00,,,0.01,Wunderground v.1.13,2013-05-05 17:48:00,
2013-05-05 13:54:00,72.5,53.9,29.93,NW,313,8.0,20.0,52,0.00,,,0.01,Wunderground v.1.13,2013-05-05 17:54:00,
2013-05-05 14:00:00,72.4,52.2,29.93,NNW,327,9.0,20.0,49,0.00,,,0.01,Wunderground v.1.13,2013-05-05 18:00:00,
2013-05-05 14:06:00,72.4,52.2,29.93,NNW,344,9.0,10.0,49,0.00,,,0.01,Wunderground v.1.13,2013-05-05 18:06:00,
2013-05-05 14:12:00,72.1,51.9,29.93,NNW,327,9.0,9.0,49,0.00,,,0.01,Wunderground v.1.13,2013-05-05 18:12:00,
2013-05-05 14:18:00,72.2,52.0,29.93,North,349,9.0,15.0,49,0.00,,,0.01,Wunderground v.1.13,2013-05-05 18:18:00,
2013-05-05 14:24:00,72.0,52.9,29.93,NNW,336,9.0,9.0,51,0.00,,,0.01,Wunderground v.1.13,2013-05-05 18:24:00,
2013-05-05 14:30:00,72.0,52.3,29.93,North,9,9.0,9.0,50,0.00,,,0.01,Wunderground v.1.13,2013-05-05 18:30:00,
2013-05-05 14:36:00,72.3,53.2,29.93,NW,318,8.0,8.0,51,0.00,,,0.01,Wunderground v.1.13,2013-05-05 18:36:00,
2013-05-05 14:42:00,72.9,54.2,29.93,WNW,292,6.0,15.0,52,0.00,,,0.01,Wunderground v.1.13,2013-05-05 18:42:00,
2013-05-05 14:48:00,72.8,52.5,29.93,NNW,338,8.0,8.0,49,0.00,,,0.01,Wunderground v.1.13,2013-05-05 18:48:00,
2013-05-05 14:54:00,72.8,53.6,29.93,NW,316,8.0,8.0,51,0.00,,,0.01,Wunderground v.1.13,2013-05-05 18:54:00,
2013-05-05 15:00:00,73.1,53.9,29.93,NW,311,7.0,15.0,51,0.00,,,0.01,Wunderground v.1.13,2013-05-05 19:00:00,
2013-05-05 15:06:00,72.8,53.6,29.93,NNW,344,8.0,8.0,51,0.00,,,0.01,Wunderground v.1.13,2013-05-05 19:06:00,
2013-05-05 15:12:00,73.0,54.9,29.93,NNE,28,7.0,9.0,53,0.00,,,0.01,Wunderground v.1.13,2013-05-05 19:12:00,
2013-05-05 15:18:00,72.9,54.2,29.93,WNW,282,7.0,16.0,52,0.00,,,0.01,Wunderground v.1.13,2013-05-05 19:18:00,
2013-05-05 15:24:00,72.6,52.9,29.93,NW,304,8.0,8.0,50,0.00,,,0.01,Wunderground v.1.13,2013-05-05 19:24:00,
2013-05-05 15:30:00,72.2,54.1,29.93,NW,325,8.0,8.0,53,0.00,,,0.01,Wunderground v.1.13,2013-05-05 19:30:00,
2013-05-05 15:36:00,72.6,54.0,29.92,NW,307,7.0,16.0,52,0.00,,,0.01,Wunderground v.1.13,2013-05-05 19:36:00,
2013-05-05 15:42:00,72.5,53.9,29.92,NW,317,7.0,16.0,52,0.00,,,0.01,Wunderground v.1.13,2013-05-05 19:42:00,
2013-05-05 15:48:00,72.4,54.3,29.92,NW,313,9.0,16.0,53,0.00,,,0.01,Wunderground v.1.13,2013-05-05 19:48:00,
2013-05-05 15:54:00,72.8,54.7,29.92,WNW,303,7.0,7.0,53,0.00,,,0.01,Wunderground v.1.13,2013-05-05 19:54:00,
2013-05-05 16:00:00,73.3,56.2,29.92,NNW,345,5.0,16.0,55,0.00,,,0.01,Wunderground v.1.13,2013-05-05 20:00:00,
2013-05-05 16:06:00,72.8,55.2,29.91,NNW,344,7.0,7.0,54,0.00,,,0.01,Wunderground v.1.13,2013-05-05 20:06:00,
2013-05-05 16:12:00,72.6,55.5,29.91,West,277,8.0,8.0,55,0.00,,,0.01,Wunderground v.1.13,2013-05-05 20:12:00,
2013-05-05 16:18:00,72.4,54.8,29.91,NNW,337,8.0,8.0,54,0.00,,,0.01,Wunderground v.1.13,2013-05-05 20:18:00,
2013-05-05 16:24:00,72.1,55.5,29.91,NW,315,9.0,17.0,56,0.00,,,0.01,Wunderground v.1.13,2013-05-05 20:24:00,
2013-05-05 16:30:00,72.6,56.0,29.91,West,279,8.0,8.0,56,0.00,,,0.01,Wunderground v.1.13,2013-05-05 20:30:00,
2013-05-05 16:36:00,73.3,56.7,29.92,WNW,302,5.0,5.0,56,0.00,,,0.01,Wunderground v.1.13,2013-05-05 20:36:00,
2013-05-05 16:42:00,73.5,56.8,29.91,West,267,5.0,17.0,56,0.00,,,0.01,Wunderground v.1.13,2013-05-05 20:42:00,
2013-05-05 16:48:00,73.3,56.7,29.91,NNW,331,6.0,17.0,56,0.00,,,0.01,Wunderground v.1.13,2013-05-05 20:48:00,
2013-05-05 16:54:00,73.3,56.7,29.92,NW,322,6.0,17.0,56,0.00,,,0.01,Wunderground v.1.13,2013-05-05 20:54:00,
2013-05-05 17:00:00,73.0,56.9,29.91,NNW,327,6.0,6.0,57,0.00,,,0.01,Wunderground v.1.13,2013-05-05 21:00:00,
2013-05-05 17:06:00,72.7,56.6,29.91,WNW,291,7.0,7.0,57,0.00,,,0.01,Wunderground v.1.13,2013-05-05 21:06:00,
2013-05-05 17:12:00,72.9,57.3,29.91,WNW,296,6.0,6.0,58,0.00,,,0.01,Wunderground v.1.13,2013-05-05 21:12:00,
2013-05-05 17:18:00,73.3,57.6,29.91,NW,315,4.0,16.0,58,0.00,,,0.01,Wunderground v.1.13,2013-05-05 21:18:00,
2013-05-05 17:24:00,73.0,57.3,29.91,WNW,296,6.0,6.0,58,0.00,,,0.01,Wunderground v.1.13,2013-05-05 21:24:00,
2013-05-05 17:30:00,72.8,57.6,29.91,West,275,5.0,16.0,59,0.00,,,0.01,Wunderground v.1.13,2013-05-05 21:30:00,
2013-05-05 17:36:00,73.4,58.7,29.91,NW,312,3.0,3.0,60,0.00,,,0.01,Wunderground v.1.13,2013-05-05 21:36:00,
2013-05-05 17:42:00,73.6,58.4,29.92,WNW,287,2.0,2.0,59,0.00,,,0.01,Wunderground v.1.13,2013-05-05 21:42:00,
2013-05-05 17:48:00,73.4,58.2,29.92,WNW,302,2.0,16.0,59,0.00,,,0.01,Wunderground v.1.13,2013-05-05 21:48:00,
2013-05-05 17:54:00,73.0,57.8,29.91,WNW,294,4.0,4.0,59,0.00,,,0.01,Wunderground v.1.13,2013-05-05 21:54:00,
2013-05-05 18:00:00,72.5,58.3,29.92,West,261,4.0,16.0,61,0.00,,,0.01,Wunderground v.1.13,2013-05-05 22:00:00,
2013-05-05 18:06:00,72.5,58.3,29.91,West,281,3.0,5.0,61,0.00,,,0.01,Wunderground v.1.13,2013-05-05 22:06:00,
2013-05-05 18:12:00,72.9,58.7,29.91,West,277,1.0,1.0,61,0.00,,,0.01,Wunderground v.1.13,2013-05-05 22:12:00,
2013-05-05 18:18:00,72.6,58.8,29.92,West,268,1.0,1.0,62,0.00,,,0.01,Wunderground v.1.13,2013-05-05 22:18:00,
2013-05-05 18:24:00,72.5,58.7,29.92,West,269,0.0,13.0,62,0.00,,,0.01,Wunderground v.1.13,2013-05-05 22:24:00,
2013-05-05 18:30:00,72.3,58.5,29.92,NW,315,3.0,13.0,62,0.00,,,0.01,Wunderground v.1.13,2013-05-05 22:30:00,
2013-05-05 18:36:00,71.9,58.2,29.92,WNW,300,5.0,13.0,62,0.00,,,0.01,Wunderground v.1.13,2013-05-05 22:36:00,
2013-05-05 18:42:00,71.9,58.6,29.92,WNW,294,3.0,3.0,63,0.00,,,0.01,Wunderground v.1.13,2013-05-05 22:42:00,
2013-05-05 18:48:00,71.9,58.6,29.92,WNW,292,3.0,13.0,63,0.00,,,0.01,Wunderground v.1.13,2013-05-05 22:48:00,
2013-05-05 18:54:00,71.8,58.5,29.92,WNW,292,4.0,4.0,63,0.00,,,0.01,Wunderground v.1.13,2013-05-05 22:54:00,
2013-05-05 19:00:00,71.9,58.6,29.92,West,273,2.0,2.0,63,0.00,,,0.01,Wunderground v.1.13,2013-05-05 23:00:00,
2013-05-05 19:06:00,71.9,58.6,29.92,WSW,250,0.0,0.0,63,0.00,,,0.01,Wunderground v.1.13,2013-05-05 23:06:00,
2013-05-05 19:12:00,71.4,58.6,29.93,WNW,297,0.0,0.0,64,0.00,,,0.01,Wunderground v.1.13,2013-05-05 23:12:00,
2013-05-05 19:18:00,71.3,58.5,29.92,NW,313,0.0,10.0,64,0.00,,,0.01,Wunderground v.1.13,2013-05-05 23:18:00,
2013-05-05 19:24:00,70.8,58.4,29.92,NW,315,0.0,10.0,65,0.00,,,0.01,Wunderground v.1.13,2013-05-05 23:24:00,
2013-05-05 19:30:00,70.5,58.6,29.92,West,259,0.0,10.0,66,0.00,,,0.01,Wunderground v.1.13,2013-05-05 23:30:00,
2013-05-05 19:36:00,70.0,58.5,29.92,West,263,0.0,10.0,67,0.00,,,0.01,Wunderground v.1.13,2013-05-05 23:36:00,
2013-05-05 19:42:00,69.7,58.3,29.92,West,269,0.0,10.0,67,0.00,,,0.01,Wunderground v.1.13,2013-05-05 23:42:00,
2013-05-05 19:48:00,69.5,58.5,29.92,West,261,0.0,10.0,68,0.00,,,0.01,Wunderground v.1.13,2013-05-05 23:48:00,
2013-05-05 19:54:00,69.2,58.6,29.92,West,261,0.0,10.0,69,0.00,,,0.01,Wunderground v.1.13,2013-05-05 23:54:00,
2013-05-05 20:00:00,69.1,58.5,29.92,West,262,0.0,10.0,69,0.00,,,0.01,Wunderground v.1.13,2013-05-06 00:00:00,
2013-05-05 20:06:00,68.9,58.7,29.92,West,261,0.0,0.0,70,0.00,,,0.01,Wunderground v.1.13,2013-05-06 00:06:00,
2013-05-05 20:12:00,68.6,58.4,29.92,West,262,0.0,0.0,70,0.00,,,0.01,Wunderground v.1.13,2013-05-06 00:12:00,
2013-05-05 20:18:00,68.4,58.6,29.93,West,261,0.0,0.0,71,0.00,,,0.01,Wunderground v.1.13,2013-05-06 00:18:00,
2013-05-05 20:24:00,68.2,58.0,29.93,West,262,0.0,0.0,70,0.00,,,0.01,Wunderground v.1.13,2013-05-06 00:24:00,
2013-05-05 20:30:00,68.0,58.2,29.93,West,262,0.0,0.0,71,0.00,,,0.01,Wunderground v.1.13,2013-05-06 00:30:00,
2013-05-05 20:36:00,67.9,58.5,29.93,West,262,0.0,0.0,72,0.00,,,0.01,Wunderground v.1.13,2013-05-06 00:36:00,
2013-05-05 20:42:00,67.8,58.4,29.93,West,261,0.0,0.0,72,0.00,,,0.01,Wunderground v.1.13,2013-05-06 00:42:00,
2013-05-05 20:48:00,67.7,58.7,29.93,West,262,0.0,0.0,73,0.00,,,0.01,Wunderground v.1.13,2013-05-06 00:48:00,
2013-05-05 20:54:00,67.6,58.6,29.94,West,262,0.0,0.0,73,0.00,,,0.01,Wunderground v.1.13,2013-05-06 00:54:00,
2013-05-05 21:00:00,67.5,58.5,29.93,West,262,0.0,0.0,73,0.00,,,0.01,Wunderground v.1.13,2013-05-06 01:00:00,
2013-05-05 21:06:00,67.5,58.9,29.93,West,261,0.0,0.0,74,0.00,,,0.01,Wunderground v.1.13,2013-05-06 01:06:00,
2013-05-05 21:12:00,67.4,58.8,29.94,West,261,0.0,0.0,74,0.00,,,0.01,Wunderground v.1.13,2013-05-06 01:12:00,
2013-05-05 21:18:00,67.2,58.6,29.94,West,261,0.0,0.0,74,0.00,,,0.01,Wunderground v.1.13,2013-05-06 01:18:00,
2013-05-05 21:24:00,67.2,59.0,29.94,West,262,0.0,0.0,75,0.00,,,0.01,Wunderground v.1.13,2013-05-06 01:24:00,
2013-05-05 21:30:00,67.2,59.4,29.94,West,262,0.0,0.0,76,0.00,,,0.01,Wunderground v.1.13,2013-05-06 01:30:00,
2013-05-05 21:36:00,67.3,59.1,29.94,West,262,0.0,0.0,75,0.00,,,0.01,Wunderground v.1.13,2013-05-06 01:36:00,
2013-05-05 21:42:00,67.3,59.1,29.94,West,262,0.0,0.0,75,0.00,,,0.01,Wunderground v.1.13,2013-05-06 01:42:00,
2013-05-05 21:48:00,67.4,59.6,29.94,West,262,0.0,0.0,76,0.00,,,0.01,Wunderground v.1.13,2013-05-06 01:48:00,
2013-05-05 21:54:00,67.5,59.7,29.94,West,262,0.0,0.0,76,0.00,,,0.01,Wunderground v.1.13,2013-05-06 01:54:00,
2013-05-05 22:00:00,67.5,59.7,29.94,West,261,0.0,0.0,76,0.00,,,0.01,Wunderground v.1.13,2013-05-06 02:00:00,
2013-05-05 22:06:00,67.5,59.7,29.94,West,262,0.0,0.0,76,0.00,,,0.01,Wunderground v.1.13,2013-05-06 02:06:00,
2013-05-05 22:12:00,67.6,60.1,29.94,West,262,0.0,0.0,77,0.00,,,0.01,Wunderground v.1.13,2013-05-06 02:12:00,
2013-05-05 22:18:00,67.5,59.7,29.94,West,262,0.0,0.0,76,0.00,,,0.01,Wunderground v.1.13,2013-05-06 02:18:00,
2013-05-05 22:24:00,67.6,60.1,29.94,West,262,0.0,0.0,77,0.00,,,0.01,Wunderground v.1.13,2013-05-06 02:24:00,
2013-05-05 22:30:00,67.5,60.0,29.94,West,261,0.0,0.0,77,0.00,,,0.01,Wunderground v.1.13,2013-05-06 02:30:00,
2013-05-05 22:36:00,67.6,60.1,29.94,West,261,0.0,0.0,77,0.00,,,0.01,Wunderground v.1.13,2013-05-06 02:36:00,
2013-05-05 22:42:00,67.6,59.8,29.94,West,262,0.0,0.0,76,0.00,,,0.01,Wunderground v.1.13,2013-05-06 02:42:00,
2013-05-05 22:48:00,67.8,60.0,29.94,SW,234,0.0,0.0,76,0.00,,,0.01,Wunderground v.1.13,2013-05-06 02:48:00,
2013-05-05 22:54:00,67.9,59.7,29.94,SW,234,0.0,0.0,75,0.00,,,0.01,Wunderground v.1.13,2013-05-06 02:54:00,
2013-05-05 23:00:00,67.8,59.6,29.95,SW,234,0.0,0.0,75,0.00,,,0.01,Wunderground v.1.13,2013-05-06 03:00:00,
2013-05-05 23:06:00,67.8,59.6,29.95,WSW,250,0.0,0.0,75,0.00,,,0.01,Wunderground v.1.13,2013-05-06 03:06:00,
2013-05-05 23:12:00,67.9,59.7,29.95,WSW,249,0.0,0.0,75,0.00,,,0.01,Wunderground v.1.13,2013-05-06 03:12:00,
2013-05-05 23:18:00,67.9,59.7,29.94,WSW,250,0.0,0.0,75,0.00,,,0.01,Wunderground v.1.13,2013-05-06 03:18:00,
2013-05-05 23:24:00,68.0,59.8,29.95,WSW,253,0.0,0.0,75,0.00,,,0.01,Wunderground v.1.13,2013-05-06 03:24:00,
2013-05-05 23:30:00,68.0,59.8,29.94,WSW,254,0.0,0.0,75,0.00,,,0.01,Wunderground v.1.13,2013-05-06 03:30:00,
2013-05-05 23:36:00,68.1,59.9,29.95,WSW,255,0.0,0.0,75,0.00,,,0.01,Wunderground v.1.13,2013-05-06 03:36:00,
2013-05-05 23:42:00,68.1,59.9,29.94,WSW,255,0.0,0.0,75,0.00,,,0.01,Wunderground v.1.13,2013-05-06 03:42:00,
2013-05-05 23:48:00,68.2,60.0,29.94,West,262,0.0,0.0,75,0.00,,,0.01,Wunderground v.1.13,2013-05-06 03:48:00,
2013-05-05 23:54:00,68.2,60.0,29.94,West,262,0.0,0.0,75,0.00,,,0.01,Wunderground v.1.13,2013-05-06 03:54:00,